Hourly Data Report for May 21, 2003

TORONTO CITY
ONTARIO

43°40'00.000" N
79°24'00.000" W
112.50 m
6158355
71508
XTO

Download Data

Hourly Data (May 2003)
Hourly Data Report for May 21, 2003
TIME
LST
Temp Definition
°C
Dew Point Definition
°C
Rel Hum Definition
%
Precip. Amount Definition
mm

Wind Dir Definition
10's deg

Wind Spd Definition
km/h
Visibility Definition
km
Stn Press Definition
kPa
Hmdx Definition


Wind Chill Definition


Weather Definition


00:00 9.9 6.8 81   LegendMM LegendMM LegendMM 100.75     LegendNANA
01:00 8.7 5.6 81   LegendMM LegendMM LegendMM 100.82     LegendNANA
02:00 8.3 4.9 79   LegendMM LegendMM LegendMM 100.91     LegendNANA
03:00 7.4 2.9 73   LegendMM LegendMM LegendMM 101.00     LegendNANA
04:00 6.9 2.4 73   LegendMM LegendMM LegendMM 101.10     LegendNANA
05:00 6.4 2.3 75   LegendMM LegendMM LegendMM 101.20     LegendNANA
06:00 6.1 1.4 72   LegendMM LegendMM LegendMM 101.29     LegendNANA
07:00 7.3 0.3 61   LegendMM LegendMM LegendMM 101.35     LegendNANA
08:00 9.2 0.1 53   LegendMM LegendMM LegendMM 101.41     LegendNANA
09:00 10.3 -1.2 45   LegendMM LegendMM LegendMM 101.42     LegendNANA
10:00 11.5 -0.7 43   LegendMM LegendMM LegendMM 101.42     LegendNANA
11:00 12.3 0.4 44   LegendMM LegendMM LegendMM 101.41     LegendNANA
12:00 14.2 0.5 39   LegendMM LegendMM LegendMM 101.37     LegendNANA
13:00 14.9 1.1 39   LegendMM LegendMM LegendMM 101.34     LegendNANA
14:00 12.7 2.6 50   LegendMM LegendMM LegendMM 101.35     LegendNANA
15:00 14.1 3.3 48   LegendMM LegendMM LegendMM 101.31     LegendNANA
16:00 13.5 0.5 41   LegendMM LegendMM LegendMM 101.26     LegendNANA
17:00 13.8 2.1 45   LegendMM LegendMM LegendMM 101.20     LegendNANA
18:00 11.3 0.1 46   LegendMM LegendMM LegendMM 101.20     LegendNANA
19:00 11.3 1.3 50   LegendMM LegendMM LegendMM 101.22     LegendNANA
20:00 10.0 1.6 56   LegendMM LegendMM LegendMM 101.24     LegendNANA
21:00 11.5 2.3 53   LegendMM LegendMM LegendMM 101.27     LegendNANA
22:00 10.8 2.1 55   LegendMM LegendMM LegendMM 101.27     LegendNANA
23:00 9.9 1.3 55   LegendMM LegendMM LegendMM 101.29     LegendNANA

Notes on Data Quality.

Legend

  • E = Estimated
  • M = Missing
  • NA = Not Available*
  • [empty] = Indicates an unobserved value
Date modified: